Weather History for Grayling, MI

Change the Weather History Date:

Tuesday, April 1, 2014

  Actual Average (KHTL) Record (KHTL)
Temperature  
Mean Temperature 36 °F 36 °F  
Max Temperature 45 °F 47 °F 79 °F (2010)
Min Temperature 28 °F 25 °F -15 °F (1923)
Degree Days  
Heating Degree Days 28 29  
Month to date heating degree days 29  
Since 1 July heating degree days 7014  
Cooling Degree Days 0 0  
Month to date cooling degree days 0  
Year to date cooling degree days 0  
Moisture  
Dew Point 28 °F    
Average Humidity 72    
Maximum Humidity 92    
Minimum Humidity 49    
Precipitation  
Precipitation 0.00 in 0.08 in 0.90 in (1929)
Month to date precipitation 0.08  
Year to date precipitation 4.64  
Snow  
Snow 0.00 in 0.20 in 4.90 in (1965)
Month to date snowfall 0.2  
Since 1 July snowfall 63.0  
Snow Depth -    
Sea Level Pressure  
Sea Level Pressure 29.76 in    
Wind  
Wind Speed 13 mph (SSW)    
Max Wind Speed 22 mph    
Max Gust Speed 30 mph    
Visibility 9 miles    
Events Rain , Snow    
T = Trace of Precipitation, MM = Missing Value Source: NWS Daily Summary

Daily Weather History Graph

Daily Weather History Graph

Search for Another Location

Airport:

Trip Planner

Search our weather history database for the weather conditions in past years. The results will help you decide how hot, cold, wet, or windy it might be!

Date:

Astronomy

Apr. 01, 2014 Rise Set
Actual Time 7:19 AM EDT 8:06 PM EDT
Civil Twilight 6:50 AM EDT 8:36 PM EDT
Nautical Twilight 6:15 AM EDT 9:11 PM EDT
Astronomical Twilight 5:38 AM EDT 9:47 PM EDT
Moon 8:17 AM EDT (4/1) 10:34 PM EDT (4/1)
Length of Visible Light 13h 45m
Length of Day
12h 46m
Waxing Crescent, 4% of the Moon is Illuminated
Apr 1
Waxing Crescent
Apr 7
First Quarter
Apr 15
Full
Apr 22
Last Quarter
Apr 29
New

Hourly Weather History & Observations

Time (EDT) Temp. Windchill Dew Point Humidity Pressure Visibility Wind Dir Wind Speed Gust Speed Precip Events Conditions
12:15 AM 43.5 °F 35.0 °F 27.7 °F 54% 29.87 in 10.0 mi SE 20.7 mph 28.8 mph N/A   Overcast
12:35 AM 45.7 °F 40.2 °F 27.5 °F 49% 29.88 in 10.0 mi SSE 11.5 mph 20.7 mph N/A   Overcast
12:55 AM 45.0 °F 37.6 °F 28.0 °F 52% 29.87 in 10.0 mi SSE 17.3 mph 21.9 mph N/A   Overcast
1:15 AM 42.6 °F 36.3 °F 27.7 °F 56% 29.86 in 10.0 mi SE 11.5 mph 17.3 mph N/A   Overcast
1:35 AM 42.4 °F 36.1 °F 27.1 °F 55% 29.87 in 10.0 mi SSE 11.5 mph - N/A   Overcast
1:55 AM 42.4 °F 36.5 °F 27.1 °F 55% 29.87 in 10.0 mi SSE 10.4 mph 16.1 mph N/A   Overcast
2:15 AM 41.5 °F 36.4 °F 26.6 °F 55% 29.88 in 10.0 mi SE 8.1 mph - N/A   Overcast
2:35 AM 41.9 °F 36.9 °F 26.8 °F 55% 29.88 in 10.0 mi SE 8.1 mph - N/A   Mostly Cloudy
2:55 AM 42.6 °F 36.8 °F 27.1 °F 54% 29.87 in 10.0 mi SE 10.4 mph - N/A   Overcast
3:15 AM 42.8 °F 37.5 °F 28.0 °F 56% 29.86 in 10.0 mi South 9.2 mph - N/A Rain Light Rain
3:35 AM 40.8 °F 33.7 °F 30.2 °F 66% 29.84 in 10.0 mi SE 12.7 mph 16.1 mph N/A Rain Rain
3:55 AM 39.2 °F 32.5 °F 32.0 °F 75% 29.81 in 5.0 mi ESE 10.4 mph 13.8 mph N/A   Unknown
4:15 AM 37.9 °F 30.5 °F 32.9 °F 82% 29.81 in 10.0 mi SE 11.5 mph - N/A   Overcast
4:35 AM 38.5 °F 33.4 °F 33.4 °F 82% 29.79 in 10.0 mi SE 6.9 mph - N/A   Overcast
4:55 AM 38.5 °F 32.1 °F 33.1 °F 81% 29.78 in 10.0 mi SE 9.2 mph - N/A   Overcast
5:15 AM 37.8 °F 31.8 °F 33.8 °F 86% 29.77 in 7.0 mi ESE 8.1 mph - N/A Rain Light Rain
5:34 AM 37.6 °F 30.5 °F 34.3 °F 88% 29.75 in 10.0 mi ESE 10.4 mph - N/A Rain Light Rain
5:55 AM 37.6 °F 31.0 °F 34.2 °F 87% 29.74 in 10.0 mi ESE 9.2 mph - N/A   Overcast
6:14 AM 39.0 °F 31.0 °F 34.2 °F 83% 29.72 in 10.0 mi SE 13.8 mph - N/A   Overcast
6:35 AM 39.2 °F 35.0 °F 34.3 °F 83% 29.71 in 10.0 mi ESE 5.8 mph - N/A   Overcast
6:55 AM 40.1 °F 33.2 °F 34.9 °F 82% 29.70 in 10.0 mi SE 11.5 mph 16.1 mph N/A   Overcast
7:15 AM 40.1 °F 34.1 °F 34.9 °F 82% 29.69 in 10.0 mi SE 9.2 mph - N/A   Overcast
7:34 AM 39.4 °F 32.7 °F 34.3 °F 82% 29.69 in 10.0 mi SE 10.4 mph - N/A   Light Drizzle
7:55 AM 39.7 °F 32.7 °F 33.8 °F 79% 29.69 in 10.0 mi SE 11.5 mph - N/A   Overcast
8:15 AM 40.5 °F 33.6 °F 33.8 °F 77% 29.68 in 10.0 mi SSE 11.5 mph 18.4 mph N/A   Overcast
8:35 AM 40.5 °F 32.5 °F 33.1 °F 75% 29.67 in 10.0 mi SE 15.0 mph 18.4 mph N/A   Overcast
8:55 AM 41.2 °F 34.1 °F 33.8 °F 75% 29.67 in 10.0 mi SE 12.7 mph 23.0 mph N/A   Overcast
9:15 AM 41.4 °F 34.3 °F 34.2 °F 76% 29.65 in 10.0 mi SE 12.7 mph 19.6 mph N/A   Overcast
9:35 AM 41.5 °F 35.4 °F 34.2 °F 75% 29.65 in 10.0 mi SE 10.4 mph - N/A   Overcast
9:55 AM 42.1 °F 35.2 °F 34.5 °F 75% 29.64 in 10.0 mi SE 12.7 mph 19.6 mph N/A   Overcast
10:15 AM 41.9 °F 35.9 °F 34.5 °F 75% 29.64 in 10.0 mi SE 10.4 mph 17.3 mph N/A   Overcast
10:35 AM 42.1 °F 36.1 °F 34.5 °F 75% 29.63 in 10.0 mi SSE 10.4 mph - N/A   Overcast
10:55 AM 42.4 °F 37.5 °F 35.1 °F 75% 29.63 in 10.0 mi SSE 8.1 mph - N/A   Overcast
11:15 AM 42.8 °F 38.6 °F 35.1 °F 74% 29.62 in 10.0 mi SSE 6.9 mph 16.1 mph N/A   Overcast
11:35 AM 43.7 °F 39.7 °F 36.0 °F 74% 29.62 in 10.0 mi South 6.9 mph - N/A   Overcast
11:55 AM 42.8 °F 37.5 °F 35.6 °F 76% 29.62 in 10.0 mi South 9.2 mph - N/A   Overcast
12:15 PM 42.8 °F 36.6 °F 34.9 °F 74% 29.63 in 7.0 mi SSW 11.5 mph 21.9 mph N/A   Overcast
12:35 PM 40.5 °F 32.5 °F 32.2 °F 72% 29.63 in 7.0 mi SSW 15.0 mph 19.6 mph N/A Rain Light Rain
12:55 PM 40.1 °F 33.2 °F 28.9 °F 64% 29.63 in 10.0 mi SSW 11.5 mph 23.0 mph N/A   Overcast
1:15 PM 40.3 °F 33.0 °F 29.1 °F 64% 29.63 in 10.0 mi SSW 12.7 mph 19.6 mph N/A   Overcast
1:34 PM 39.0 °F 30.3 °F 26.8 °F 62% 29.64 in 10.0 mi WSW 16.1 mph 20.7 mph N/A   Overcast
1:55 PM 37.6 °F 31.0 °F 26.4 °F 64% 29.66 in 10.0 mi WSW 9.2 mph 17.3 mph N/A   Overcast
2:15 PM 35.4 °F 27.3 °F 25.7 °F 68% 29.67 in 10.0 mi SSW 11.5 mph 17.3 mph N/A   Overcast
2:35 PM 33.8 °F 24.3 °F 26.1 °F 73% 29.69 in 10.0 mi SW 13.8 mph 23.0 mph N/A   Overcast
2:55 PM 32.9 °F 22.8 °F 25.7 °F 75% 29.70 in 10.0 mi SW 15.0 mph 23.0 mph N/A   Overcast
3:15 PM 32.9 °F 25.3 °F 26.2 °F 76% 29.71 in 5.0 mi WSW 9.2 mph 19.6 mph N/A Snow Light Snow
3:35 PM 32.9 °F 23.2 °F 28.8 °F 85% 29.72 in 4.0 mi SW 13.8 mph 19.6 mph N/A Snow Light Snow
3:55 PM 30.6 °F 19.8 °F 26.4 °F 85% 29.72 in 1.0 mi WSW 15.0 mph 20.7 mph N/A Snow Light Snow
4:15 PM 30.6 °F 21.8 °F 27.3 °F 88% 29.72 in 1.0 mi WSW 10.4 mph 17.3 mph N/A Snow Light Snow
4:35 PM 30.2 °F 21.3 °F 28.2 °F 92% 29.73 in 0.2 mi SW 10.4 mph - N/A Snow Snow
4:55 PM 30.6 °F 19.4 °F 25.3 °F 81% 29.73 in 10.0 mi WSW 16.1 mph 19.6 mph N/A   Overcast
5:15 PM 31.3 °F 22.1 °F 23.5 °F 73% 29.74 in 7.0 mi WSW 11.5 mph 21.9 mph N/A   Overcast
5:35 PM 30.6 °F 20.2 °F 22.6 °F 72% 29.74 in 2.5 mi SW 13.8 mph 23.0 mph N/A Snow Light Snow
5:55 PM 32.0 °F 20.5 °F 23.2 °F 70% 29.75 in 10.0 mi WSW 18.4 mph 25.3 mph N/A   Overcast
6:14 PM 32.2 °F 22.3 °F 23.4 °F 70% 29.76 in 10.0 mi WSW 13.8 mph 24.2 mph N/A   Overcast
6:35 PM 31.8 °F 21.0 °F 23.0 °F 70% 29.77 in 10.0 mi WSW 16.1 mph 21.9 mph N/A   Overcast
6:54 PM 30.6 °F 19.0 °F 22.5 °F 72% 29.79 in 10.0 mi WSW 17.3 mph 27.6 mph N/A   Overcast
7:15 PM 30.6 °F 19.8 °F 22.3 °F 71% 29.80 in 10.0 mi WSW 15.0 mph 24.2 mph N/A   Overcast
7:35 PM 30.6 °F 19.0 °F 22.1 °F 71% 29.81 in 10.0 mi WSW 17.3 mph 25.3 mph N/A   Overcast
7:55 PM 30.6 °F 19.4 °F 22.8 °F 73% 29.82 in 10.0 mi WSW 16.1 mph 23.0 mph N/A   Overcast
8:14 PM 30.6 °F 18.6 °F 23.0 °F 74% 29.83 in 10.0 mi West 18.4 mph 24.2 mph N/A   Overcast
8:35 PM 30.6 °F 19.0 °F 23.4 °F 75% 29.84 in 10.0 mi West 17.3 mph 26.5 mph N/A   Overcast
8:55 PM 30.6 °F 17.6 °F 23.5 °F 75% 29.86 in 10.0 mi West 21.9 mph 28.8 mph N/A   Overcast
9:15 PM 30.6 °F 22.4 °F 23.9 °F 76% 29.87 in 10.0 mi West 9.2 mph 21.9 mph N/A   Overcast
9:34 PM 30.6 °F 19.8 °F 23.4 °F 75% 29.88 in 10.0 mi WSW 15.0 mph 21.9 mph N/A   Overcast
9:55 PM 28.9 °F 16.5 °F 21.7 °F 74% 29.89 in 10.0 mi West 18.4 mph 26.5 mph N/A   Overcast
10:15 PM 28.4 °F 17.5 °F 20.8 °F 73% 29.90 in 10.0 mi West 13.8 mph 20.7 mph N/A   Overcast
10:35 PM 28.2 °F 15.9 °F 19.8 °F 71% 29.91 in 10.0 mi West 17.3 mph 27.6 mph N/A   Overcast
10:55 PM 28.0 °F 16.5 °F 19.2 °F 70% 29.92 in 10.0 mi West 15.0 mph 29.9 mph N/A   Overcast
11:15 PM 28.0 °F 15.7 °F 18.9 °F 68% 29.93 in 10.0 mi West 17.3 mph 27.6 mph N/A   Overcast
11:34 PM 28.0 °F 16.5 °F 18.9 °F 68% 29.93 in 10.0 mi West 15.0 mph 24.2 mph N/A   Overcast
11:55 PM 28.0 °F 15.3 °F 18.5 °F 67% 29.94 in 10.0 mi West 18.4 mph 25.3 mph N/A   Overcast